Other Public Products
Issued by NWS Charleston, SC

Current Version | Previous Version | Text Only | Print | Product List | Glossary Off
Versions: 1 2 3 4 5 6 7 8 9 10 11 12 13 14 15 16 17 18 19 20 21 22 23 24 25 26 27 28 29 30 31 32 33 34 35 36 37 38 39 40 41 42 43 44 45 46 47 48 49 50
000 FPUS82 KCHS 150927 OPUCHS TEST...KCHS/KSAV Gateway Observations...TEST National Weather Service Charleston SC 400 AM EST MON JAN 15 2018 NOTE: "fair" indicates few or no clouds below 12,000 feet with no significant weather and/or obstructions to visibility. SCZ050-WAZ558-NCZ071-TXZ119-213-PAZ071-DCZ001-FLZ074-172-MI076- NYZ176-178-MAZ016-IL014-TNZ027-NJZ106-GAZ044-MD014-151000- ...Gateway Observations for Charleston International... CITY SKY/WX TMP DP RH WIND PRES REMARKS Chas Airport MOCLDY 30 15 53 N7 30.47F WCI 23 Seattle MOCLDY 45 40 82 NE3 30.07F Charlotte FAIR 21 8 57 N7 30.50S WCI 12 Dallas DFW CLEAR 41 32 70 S9 30.27S Dallas Love CLEAR 39 30 70 SE8 30.30S WCI 33 Philladelphia CLOUDY 18 3 52 NE12 30.65S WCI 5 Wash National FAIR 19 7 59 N9 30.61F WCI 8 Baltimore FAIR 14 7 73 CALM 30.61F Miami CLOUDY 56 54 93 N10 30.21S Detroit CLOUDY 17 6 62 SE10 30.42F WCI 5 Newark MOCLDY 15 2 56 N14 30.67F WCI 0 Laguardia FAIR 17 5 59 N12 30.67F WCI 4 J F K MOCLDY 17 7 64 N16 30.67S WCI 2 Boston Logan FLURRIES 15 7 70 N20 30.72S WCI -2 Ft. Lauderdale CLOUDY 54 54 100 NW9 30.20F Chicago O`Hare LGT SNOW 19 14 81 S13 30.16F WCI 6 Chicago Midway LGT SNOW 19 15 84 S12 30.18F FOG WCI 7 Houston Bush CLEAR 35 34 96 CALM 30.38F Houston Hobby FAIR 41 39 93 SE5 30.37F Nashville CLOUDY 27 18 69 SE5 30.39R WCI 22 Atlanta FAIR 28 18 66 E7 30.41F WCI 21 $$ GAZ044-118-TXZ119-213-NCZ071-DCZ001-MDZ014-506-PAZ021-071-NJZ106- NYZ176-178-MAZ106-OHZ011-021-055-MIZ076-KYZ091-ILZ014-INZ047- MNZ060-ONZ431-151000- ...Gateway Observations for Savannah International... CITY SKY/WX TMP DP RH WIND PRES REMARKS Savannah Arpt FAIR 33 21 61 NE6 30.46F WCI 28 Atlanta FAIR 28 18 66 E7 30.41F WCI 21 Charlotte FAIR 21 8 57 N7 30.50S WCI 12 Dallas DFW CLEAR 41 32 70 S9 30.27S Houston Bush CLEAR 35 34 96 CALM 30.38F Wash National FAIR 19 7 59 N9 30.61F WCI 8 Wash Dulles FAIR 14 6 70 N3 30.60F Baltimore FAIR 14 7 73 CALM 30.61F Philadelphia CLOUDY 18 3 52 NE12 30.65S WCI 5 Newark MOCLDY 15 2 56 N14 30.67F WCI 0 Laguardia FAIR 17 5 59 N12 30.67F WCI 4 J F K MOCLDY 17 7 64 N16 30.67S WCI 2 Boston FLURRIES 15 7 70 N20 30.72S WCI -2 Pittsburg MOCLDY 7 1 76 E3 30.41S Akron MOCLDY 10 0 63 SE8 30.39F WCI -2 Cleveland CLOUDY 12 4 70 E3 30.45F Cincinnati LGT SNOW 17 14 88 S8 30.34F FOG WCI 7 Columbus CLOUDY 12 6 74 E5 30.39F WCI 4 Detroit CLOUDY 17 6 62 SE10 30.42F WCI 5 Chicago O`Hare LGT SNOW 19 14 81 S13 30.16F WCI 6 Minneapolis LGT SNOW 10 6 84 NW16 30.18R FOG WCI -7 Indianapolis LGT SNOW 17 14 88 SE9 30.27F FOG WCI 6 Toronto Canada CLOUDY 16 7 67 SE17G24 30.56F WCI 0 $$

USA.gov is the U.S. government's official web portal to all federal, state and local government web resources and services.